Location: Unspecified
(43.9500°N, 64.7900°W)
Time: 21:59:35
(UTC-03:00)

OTV 5 (USA 277) - Visible Passes

Search period start: 18 June 2018 00:00
Search period end: 28 June 2018 00:00
Orbit: 313 x 320 km, 54.5° (Epoch: 18 June)

Date Brightness Start Highest point End Pass type
(mag) Time Alt. Az. Time Alt. Az. Time Alt. Az.
18 Jun ? 02:57:43 10° NNW 02:59:48 19° NNE 03:01:54 10° ENE visible
18 Jun ? 04:31:38 10° WNW 04:34:17 49° SW 04:36:55 10° SE visible
18 Jun ? 22:26:46 10° W 22:29:11 29° NNW 22:31:37 10° NE visible
19 Jun ? 00:03:36 10° NNW 00:04:12 10° N 00:04:48 10° N visible
19 Jun ? 01:38:34 10° N 01:39:30 11° NNE 01:40:27 10° NNE visible
19 Jun ? 03:11:53 10° NW 03:14:26 36° NNE 03:17:00 10° ESE visible
19 Jun ? 04:46:35 10° W 04:48:35 18° SW 04:50:34 10° S visible
19 Jun ? 22:41:58 10° WNW 22:43:52 17° NNW 22:45:45 10° NNE visible
20 Jun ? 01:52:32 10° NNW 01:54:17 16° NNE 01:56:04 10° ENE visible
20 Jun ? 03:26:13 10° NW 03:28:57 87° SW 03:31:28 11° SE visible
20 Jun ? 22:57:31 10° NW 22:58:38 12° NNW 22:59:45 10° N visible
21 Jun ? 00:33:39 10° N 00:33:56 10° N 00:34:13 10° NNE visible
21 Jun ? 02:06:39 10° NNW 02:09:00 25° NNE 02:09:49 22° ENE visible
22 Jun ? 00:47:24 10° NNW 00:48:46 13° NNE 00:50:09 10° NE visible
22 Jun ? 02:20:54 10° NW 02:22:00 21° NW 02:22:00 21° NW visible
22 Jun ? 21:51:33 10° NW 21:53:06 14° NNW 21:54:38 10° NNE visible
23 Jun ? 01:01:26 10° NNW 01:03:31 19° NNE 01:04:01 18° NE visible
23 Jun ? 22:07:18 10° NNW 22:07:55 10° N 22:08:31 10° N visible
23 Jun ? 23:42:18 10° N 23:43:13 11° NNE 23:44:07 10° NNE visible
24 Jun ? 01:15:37 10° NW 01:17:06 24° NNW 01:17:06 24° NNW visible
24 Jun ? 23:56:16 10° NNW 23:58:01 15° NNE 23:59:31 11° NE visible
25 Jun ? 01:29:57 10° NW 01:30:21 13° NW 01:30:21 13° NW visible
25 Jun ? 22:37:29 10° N 22:37:39 10° N 22:37:49 10° N visible
26 Jun ? 00:10:23 10° NNW 00:12:43 25° NNE 00:12:51 25° NNE visible
26 Jun ? 22:51:08 10° NNW 22:52:29 13° NNE 22:53:50 10° NE visible
27 Jun ? 00:24:38 10° NW 00:26:17 31° NNW 00:26:17 31° NNW visible
27 Jun ? 23:05:10 10° NNW 23:07:15 19° NNE 23:08:55 12° ENE visible
